This is the latest recevied weather packets stored in our database for station/object W6MAF. If no packets are shown the sender has not sent any weather packets the latest 10 day(s).
| Time | Temp. | Humidity | Pressure | Rain* | Wind** | Luminosity | Snow |
|---|---|---|---|---|---|---|---|
| 1777752827 | 25.56° C | 4% | - | 0 mm | 0.89 m/s, 165° | - | - |
| 1777752529 | 25.56° C | 5% | - | 0 mm | 0 m/s | - | - |
| 1777752231 | 25.56° C | 4% | - | 0 mm | 3.58 m/s, 173° | - | - |
| 1777751933 | 25.56° C | 5% | - | 0 mm | 3.13 m/s, 221° | - | - |
| 1777751633 | 25.56° C | 4% | - | 0 mm | 0 m/s | - | - |
| 1777751335 | 25.56° C | 5% | - | 0 mm | 0 m/s | - | - |
| 1777751037 | 25° C | 5% | - | 0 mm | 0 m/s | - | - |
| 1777750739 | 25.56° C | 5% | - | 0 mm | 4.92 m/s, 197° | - | - |
| 1777750442 | 25.56° C | 5% | - | 0 mm | 2.68 m/s, 179° | - | - |
| 1777750144 | 25.56° C | 5% | - | 0 mm | 0.45 m/s, 205° | - | - |
| 1777749843 | 25° C | 5% | - | 0 mm | 1.34 m/s, 190° | - | - |
| 1777749545 | 25° C | 5% | - | 0 mm | 2.24 m/s, 166° | - | - |
| 1777749248 | 25° C | 5% | - | 0 mm | 3.13 m/s, 160° | - | - |
| 1777748950 | 25° C | 5% | - | 0 mm | 0.89 m/s, 201° | - | - |
| 1777748652 | 25° C | 5% | - | 0 mm | 3.13 m/s, 162° | - | - |
| 1777748355 | 25° C | 5% | - | 0 mm | 6.26 m/s, 184° | - | - |
| 1777748054 | 25° C | 5% | - | 0 mm | 0 m/s | - | - |
| 1777747458 | 25° C | 5% | - | 0 mm | 0.45 m/s, 160° | - | - |
| 1777747161 | 25° C | 5% | - | 0 mm | 3.58 m/s, 195° | - | - |
| 1777746863 | 25° C | 5% | - | 0 mm | 1.34 m/s, 139° | - | - |
| 1777746264 | 25° C | 5% | - | 0 mm | 4.02 m/s, 125° | - | - |
| 1777745967 | 25° C | 5% | - | 0 mm | 3.58 m/s, 158° | - | - |
| 1777745669 | 25° C | 5% | - | 0 mm | 3.13 m/s, 162° | - | - |
| 1777745371 | 25° C | 5% | - | 0 mm | 3.13 m/s, 186° | - | - |
| 1777745074 | 25° C | 5% | - | 0 mm | 3.13 m/s, 172° | - | - |
* Rain latest hour (hover to see other rain measurements)
** Current wind speed in m/s (hover to see current wind gust speed)